"Time","Value","Approval","myLocation"
"2023-05-07 00:00",9.04,"Approved","OW045"
"2023-05-07 01:00",9.037,"Approved","OW045"
"2023-05-07 02:00",9.037,"Approved","OW045"
"2023-05-07 03:00",9.032,"Approved","OW045"
"2023-05-07 04:00",9.031,"Approved","OW045"
"2023-05-07 05:00",9.029,"Approved","OW045"
"2023-05-07 06:00",9.027,"Approved","OW045"
"2023-05-07 07:00",9.024,"Approved","OW045"
"2023-05-07 08:00",9.022,"Approved","OW045"
"2023-05-07 09:00",9.017,"Approved","OW045"
"2023-05-07 10:00",9.015,"Approved","OW045"
"2023-05-07 11:00",9.014,"Approved","OW045"
"2023-05-07 12:00",9.011,"Approved","OW045"
"2023-05-07 13:00",9.007,"Approved","OW045"
"2023-05-07 14:00",9.004,"Approved","OW045"
"2023-05-07 15:00",9,"Approved","OW045"
"2023-05-07 16:00",8.998,"Approved","OW045"
"2023-05-07 17:00",8.993,"Approved","OW045"
"2023-05-07 18:00",8.991,"Approved","OW045"
"2023-05-07 19:00",8.991,"Approved","OW045"
"2023-05-07 20:00",8.989,"Approved","OW045"
"2023-05-07 21:00",8.984,"Approved","OW045"
"2023-05-07 22:00",8.979,"Approved","OW045"
"2023-05-07 23:00",8.979,"Approved","OW045"
"2023-05-08 00:00",8.975,"Approved","OW045"
"2023-05-08 01:00",8.97,"Approved","OW045"
"2023-05-08 02:00",8.967,"Approved","OW045"
"2023-05-08 03:00",8.965,"Approved","OW045"
"2023-05-08 04:00",8.961,"Approved","OW045"
"2023-05-08 05:00",8.958,"Approved","OW045"
"2023-05-08 06:00",8.956,"Approved","OW045"
"2023-05-08 07:00",8.953,"Approved","OW045"
"2023-05-08 08:00",8.949,"Approved","OW045"
"2023-05-08 09:00",8.945,"Approved","OW045"
"2023-05-08 10:00",8.939,"Approved","OW045"
"2023-05-08 11:00",8.937,"Approved","OW045"
"2023-05-08 12:00",8.933,"Approved","OW045"
"2023-05-08 13:00",8.93,"Approved","OW045"
"2023-05-08 14:00",8.926,"Approved","OW045"
"2023-05-08 15:00",8.926,"Approved","OW045"
"2023-05-08 16:00",8.922,"Approved","OW045"
"2023-05-08 17:00",8.918,"Approved","OW045"
"2023-05-08 18:00",8.913,"Approved","OW045"
"2023-05-08 19:00",8.908,"Approved","OW045"
"2023-05-08 20:00",8.908,"Approved","OW045"
"2023-05-08 21:00",8.905,"Approved","OW045"
"2023-05-08 22:00",8.898,"Approved","OW045"
"2023-05-08 23:00",8.897,"Approved","OW045"
"2023-05-09 00:00",8.891,"Approved","OW045"
"2023-05-09 01:00",8.889,"Approved","OW045"
"2023-05-09 02:00",8.886,"Approved","OW045"
"2023-05-09 03:00",8.883,"Approved","OW045"
"2023-05-09 04:00",8.878,"Approved","OW045"
"2023-05-09 05:00",8.873,"Approved","OW045"
"2023-05-09 06:00",8.87,"Approved","OW045"
"2023-05-09 07:00",8.866,"Approved","OW045"
"2023-05-09 08:00",8.864,"Approved","OW045"
"2023-05-09 09:00",8.859,"Approved","OW045"
"2023-05-09 10:00",8.853,"Approved","OW045"
"2023-05-09 11:00",8.847,"Approved","OW045"
"2023-05-09 12:00",8.845,"Approved","OW045"
"2023-05-09 13:00",8.842,"Approved","OW045"
"2023-05-09 14:00",8.837,"Approved","OW045"
"2023-05-09 15:00",8.832,"Approved","OW045"
"2023-05-09 16:00",8.83,"Approved","OW045"
"2023-05-09 17:00",8.826,"Approved","OW045"
"2023-05-09 18:00",8.822,"Approved","OW045"
"2023-05-09 19:00",8.818,"Approved","OW045"
"2023-05-09 20:00",8.817,"Approved","OW045"
"2023-05-09 21:00",8.813,"Approved","OW045"
"2023-05-09 22:00",8.808,"Approved","OW045"
"2023-05-09 23:00",8.803,"Approved","OW045"
"2023-05-10 00:00",8.8,"Approved","OW045"
"2023-05-10 01:00",8.796,"Approved","OW045"
"2023-05-10 02:00",8.789,"Approved","OW045"
"2023-05-10 03:00",8.785,"Approved","OW045"
"2023-05-10 04:00",8.782,"Approved","OW045"
"2023-05-10 05:00",8.781,"Approved","OW045"
"2023-05-10 06:00",8.778,"Approved","OW045"
"2023-05-10 07:00",8.771,"Approved","OW045"
"2023-05-10 08:00",8.768,"Approved","OW045"
"2023-05-10 09:00",8.762,"Approved","OW045"
"2023-05-10 10:00",8.758,"Approved","OW045"
"2023-05-10 11:00",8.754,"Approved","OW045"
"2023-05-10 12:00",8.75,"Approved","OW045"
"2023-05-10 13:00",8.745,"Approved","OW045"
"2023-05-10 14:00",8.742,"Approved","OW045"
"2023-05-10 15:00",8.736,"Approved","OW045"
"2023-05-10 16:00",8.731,"Approved","OW045"
"2023-05-10 17:00",8.729,"Approved","OW045"
"2023-05-10 18:00",8.725,"Approved","OW045"
"2023-05-10 19:00",8.723,"Approved","OW045"
"2023-05-10 20:00",8.719,"Approved","OW045"
"2023-05-10 21:00",8.717,"Approved","OW045"
"2023-05-10 22:00",8.712,"Approved","OW045"
"2023-05-10 23:00",8.71,"Approved","OW045"
"2023-05-11 00:00",8.705,"Approved","OW045"
"2023-05-11 01:00",8.699,"Approved","OW045"
"2023-05-11 02:00",8.697,"Approved","OW045"
"2023-05-11 03:00",8.693,"Approved","OW045"
"2023-05-11 04:00",8.688,"Approved","OW045"
"2023-05-11 05:00",8.684,"Approved","OW045"
"2023-05-11 06:00",8.681,"Approved","OW045"
"2023-05-11 07:00",8.674,"Approved","OW045"
"2023-05-11 08:00",8.669,"Approved","OW045"
"2023-05-11 09:00",8.666,"Approved","OW045"
"2023-05-11 10:00",8.661,"Approved","OW045"
"2023-05-11 11:00",8.657,"Approved","OW045"
"2023-05-11 12:00",8.654,"Approved","OW045"
"2023-05-11 13:00",8.65,"Approved","OW045"
"2023-05-11 14:00",8.646,"Approved","OW045"
"2023-05-11 15:00",8.644,"Approved","OW045"
"2023-05-11 16:00",8.637,"Approved","OW045"
"2023-05-11 17:00",8.635,"Approved","OW045"
"2023-05-11 18:00",8.629,"Approved","OW045"
"2023-05-11 19:00",8.629,"Approved","OW045"
"2023-05-11 20:00",8.625,"Approved","OW045"
"2023-05-11 21:00",8.623,"Approved","OW045"
"2023-05-11 22:00",8.624,"Approved","OW045"
"2023-05-11 23:00",8.615,"Approved","OW045"
"2023-05-12 00:00",8.614,"Approved","OW045"
"2023-05-12 01:00",8.609,"Approved","OW045"
"2023-05-12 02:00",8.607,"Approved","OW045"
"2023-05-12 03:00",8.606,"Approved","OW045"
"2023-05-12 04:00",8.599,"Approved","OW045"
"2023-05-12 05:00",8.598,"Approved","OW045"
"2023-05-12 06:00",8.596,"Approved","OW045"
"2023-05-12 07:00",8.592,"Approved","OW045"
"2023-05-12 08:00",8.587,"Approved","OW045"
"2023-05-12 09:00",8.582,"Approved","OW045"
"2023-05-12 10:00",8.577,"Approved","OW045"
"2023-05-12 11:00",8.574,"Approved","OW045"
"2023-05-12 12:00",8.571,"Approved","OW045"
"2023-05-12 13:00",8.568,"Approved","OW045"
"2023-05-12 14:00",8.563,"Approved","OW045"
"2023-05-12 15:00",8.56,"Approved","OW045"
"2023-05-12 16:00",8.554,"Approved","OW045"
"2023-05-12 17:00",8.552,"Approved","OW045"
"2023-05-12 18:00",8.549,"Approved","OW045"
"2023-05-12 19:00",8.549,"Approved","OW045"
"2023-05-12 20:00",8.544,"Approved","OW045"
"2023-05-12 21:00",8.543,"Approved","OW045"
"2023-05-12 22:00",8.542,"Approved","OW045"
"2023-05-12 23:00",8.538,"Approved","OW045"
"2023-05-13 00:00",8.534,"Approved","OW045"
"2023-05-13 01:00",8.534,"Approved","OW045"
"2023-05-13 02:00",8.528,"Approved","OW045"
"2023-05-13 03:00",8.526,"Approved","OW045"
"2023-05-13 04:00",8.524,"Approved","OW045"
"2023-05-13 05:00",8.522,"Approved","OW045"
"2023-05-13 06:00",8.518,"Approved","OW045"
"2023-05-13 07:00",8.513,"Approved","OW045"
"2023-05-13 08:00",8.513,"Approved","OW045"
"2023-05-13 09:00",8.507,"Approved","OW045"
"2023-05-13 10:00",8.504,"Approved","OW045"
"2023-05-13 11:00",8.497,"Approved","OW045"
"2023-05-13 12:00",8.496,"Approved","OW045"
"2023-05-13 13:00",8.495,"Approved","OW045"
"2023-05-13 14:00",8.49,"Approved","OW045"
"2023-05-13 15:00",8.489,"Approved","OW045"
"2023-05-13 16:00",8.485,"Approved","OW045"
"2023-05-13 17:00",8.483,"Approved","OW045"
"2023-05-13 18:00",8.48,"Approved","OW045"
"2023-05-13 19:00",8.479,"Approved","OW045"
"2023-05-13 20:00",8.477,"Approved","OW045"
"2023-05-13 21:00",8.476,"Approved","OW045"
"2023-05-13 22:00",8.473,"Approved","OW045"
"2023-05-13 23:00",8.469,"Approved","OW045"
"2023-05-14 00:00",8.469,"Approved","OW045"
"2023-05-14 01:00",8.466,"Approved","OW045"
"2023-05-14 02:00",8.464,"Approved","OW045"
"2023-05-14 03:00",8.461,"Approved","OW045"
"2023-05-14 04:00",8.459,"Approved","OW045"
"2023-05-14 05:00",8.458,"Approved","OW045"
"2023-05-14 06:00",8.454,"Approved","OW045"
"2023-05-14 07:00",8.453,"Approved","OW045"
"2023-05-14 08:00",8.448,"Approved","OW045"
"2023-05-14 09:00",8.445,"Approved","OW045"
"2023-05-14 10:00",8.441,"Approved","OW045"
"2023-05-14 11:00",8.436,"Approved","OW045"
"2023-05-14 12:00",8.435,"Approved","OW045"
"2023-05-14 13:00",8.431,"Approved","OW045"
"2023-05-14 14:00",8.431,"Approved","OW045"
"2023-05-14 15:00",8.428,"Approved","OW045"
"2023-05-14 16:00",8.425,"Approved","OW045"
"2023-05-14 17:00",8.423,"Approved","OW045"
"2023-05-14 18:00",8.42,"Approved","OW045"
"2023-05-14 19:00",8.419,"Approved","OW045"
"2023-05-14 20:00",8.419,"Approved","OW045"
"2023-05-14 21:00",8.415,"Approved","OW045"
"2023-05-14 22:00",8.415,"Approved","OW045"
"2023-05-14 23:00",8.413,"Approved","OW045"
"2023-05-15 00:00",8.411,"Approved","OW045"
"2023-05-15 01:00",8.409,"Approved","OW045"
"2023-05-15 02:00",8.408,"Approved","OW045"
"2023-05-15 03:00",8.406,"Approved","OW045"
"2023-05-15 04:00",8.405,"Approved","OW045"
"2023-05-15 05:00",8.404,"Approved","OW045"
"2023-05-15 06:00",8.404,"Approved","OW045"
"2023-05-15 07:00",8.399,"Approved","OW045"
"2023-05-15 08:00",8.398,"Approved","OW045"
"2023-05-15 09:00",8.393,"Approved","OW045"
"2023-05-15 10:00",8.391,"Approved","OW045"
"2023-05-15 11:00",8.389,"Approved","OW045"
"2023-05-15 12:00",8.387,"Approved","OW045"
"2023-05-15 13:00",8.385,"Approved","OW045"
"2023-05-15 14:00",8.384,"Approved","OW045"
"2023-05-15 15:00",8.385,"Approved","OW045"
"2023-05-15 16:00",8.382,"Approved","OW045"
"2023-05-15 17:00",8.381,"Approved","OW045"
"2023-05-15 18:00",8.381,"Approved","OW045"
"2023-05-15 19:00",8.382,"Approved","OW045"
"2023-05-15 20:00",8.386,"Approved","OW045"
"2023-05-15 21:00",8.385,"Approved","OW045"
"2023-05-15 22:00",8.385,"Approved","OW045"
"2023-05-15 23:00",8.386,"Approved","OW045"
"2023-05-16 00:00",8.385,"Approved","OW045"
"2023-05-16 01:00",8.387,"Approved","OW045"
"2023-05-16 02:00",8.384,"Approved","OW045"
"2023-05-16 03:00",8.385,"Approved","OW045"
"2023-05-16 04:00",8.385,"Approved","OW045"
"2023-05-16 05:00",8.385,"Approved","OW045"
"2023-05-16 06:00",8.385,"Approved","OW045"
"2023-05-16 07:00",8.385,"Approved","OW045"
"2023-05-16 08:00",8.384,"Approved","OW045"
"2023-05-16 09:00",8.382,"Approved","OW045"
"2023-05-16 10:00",8.382,"Approved","OW045"
"2023-05-16 11:00",8.381,"Approved","OW045"
"2023-05-16 12:00",8.382,"Approved","OW045"
"2023-05-16 13:00",8.381,"Approved","OW045"
"2023-05-16 14:00",8.382,"Approved","OW045"
"2023-05-16 15:00",8.379,"Approved","OW045"
"2023-05-16 16:00",8.381,"Approved","OW045"
"2023-05-16 17:00",8.379,"Approved","OW045"
"2023-05-16 18:00",8.378,"Approved","OW045"
"2023-05-16 19:00",8.379,"Approved","OW045"
"2023-05-16 20:00",8.382,"Approved","OW045"
"2023-05-16 21:00",8.384,"Approved","OW045"
"2023-05-16 22:00",8.384,"Approved","OW045"
"2023-05-16 23:00",8.384,"Approved","OW045"
"2023-05-17 00:00",8.387,"Approved","OW045"
"2023-05-17 01:00",8.383,"Approved","OW045"
"2023-05-17 02:00",8.384,"Approved","OW045"
"2023-05-17 03:00",8.384,"Approved","OW045"
"2023-05-17 04:00",8.385,"Approved","OW045"
"2023-05-17 05:00",8.387,"Approved","OW045"
"2023-05-17 06:00",8.384,"Approved","OW045"
"2023-05-17 07:00",8.384,"Approved","OW045"
"2023-05-17 08:00",8.384,"Approved","OW045"
"2023-05-17 09:00",8.384,"Approved","OW045"
"2023-05-17 10:00",8.382,"Approved","OW045"
"2023-05-17 11:00",8.379,"Approved","OW045"
"2023-05-17 12:00",8.382,"Approved","OW045"
"2023-05-17 13:00",8.378,"Approved","OW045"
"2023-05-17 14:00",8.38,"Approved","OW045"
"2023-05-17 15:00",8.378,"Approved","OW045"
"2023-05-17 16:00",8.375,"Approved","OW045"
"2023-05-17 17:00",8.377,"Approved","OW045"
"2023-05-17 18:00",8.376,"Approved","OW045"
"2023-05-17 19:00",8.378,"Approved","OW045"
"2023-05-17 20:00",8.382,"Approved","OW045"
"2023-05-17 21:00",8.383,"Approved","OW045"
"2023-05-17 22:00",8.384,"Approved","OW045"
"2023-05-17 23:00",8.384,"Approved","OW045"
"2023-05-18 00:00",8.386,"Approved","OW045"
"2023-05-18 01:00",8.387,"Approved","OW045"
"2023-05-18 02:00",8.387,"Approved","OW045"
"2023-05-18 03:00",8.388,"Approved","OW045"
"2023-05-18 04:00",8.391,"Approved","OW045"
"2023-05-18 05:00",8.394,"Approved","OW045"
"2023-05-18 06:00",8.394,"Approved","OW045"
"2023-05-18 07:00",8.396,"Approved","OW045"
"2023-05-18 08:00",8.396,"Approved","OW045"
"2023-05-18 09:00",8.397,"Approved","OW045"
"2023-05-18 10:00",8.396,"Approved","OW045"
"2023-05-18 11:00",8.397,"Approved","OW045"
"2023-05-18 12:00",8.397,"Approved","OW045"
"2023-05-18 13:00",8.395,"Approved","OW045"
"2023-05-18 14:00",8.397,"Approved","OW045"
"2023-05-18 15:00",8.395,"Approved","OW045"
"2023-05-18 16:00",8.4,"Approved","OW045"
"2023-05-18 17:00",8.403,"Approved","OW045"
"2023-05-18 18:00",8.407,"Approved","OW045"
"2023-05-18 19:00",8.408,"Approved","OW045"
"2023-05-18 20:00",8.412,"Approved","OW045"
"2023-05-18 21:00",8.412,"Approved","OW045"
"2023-05-18 22:00",8.412,"Approved","OW045"
"2023-05-18 23:00",8.415,"Approved","OW045"
"2023-05-19 00:00",8.413,"Approved","OW045"
"2023-05-19 01:00",8.414,"Approved","OW045"
"2023-05-19 02:00",8.416,"Approved","OW045"
"2023-05-19 03:00",8.418,"Approved","OW045"
"2023-05-19 04:00",8.418,"Approved","OW045"
"2023-05-19 05:00",8.416,"Approved","OW045"
"2023-05-19 06:00",8.418,"Approved","OW045"
"2023-05-19 07:00",8.415,"Approved","OW045"
"2023-05-19 08:00",8.413,"Approved","OW045"
"2023-05-19 09:00",8.411,"Approved","OW045"
"2023-05-19 10:00",8.413,"Approved","OW045"
"2023-05-19 11:00",8.41,"Approved","OW045"
"2023-05-19 12:00",8.411,"Approved","OW045"
"2023-05-19 13:00",8.413,"Approved","OW045"
"2023-05-19 14:00",8.412,"Approved","OW045"
"2023-05-19 15:00",8.41,"Approved","OW045"
"2023-05-19 16:00",8.409,"Approved","OW045"
"2023-05-19 17:00",8.411,"Approved","OW045"
"2023-05-19 18:00",8.411,"Approved","OW045"
"2023-05-19 19:00",8.414,"Approved","OW045"
"2023-05-19 20:00",8.416,"Approved","OW045"
"2023-05-19 21:00",8.416,"Approved","OW045"
"2023-05-19 22:00",8.419,"Approved","OW045"
"2023-05-19 23:00",8.419,"Approved","OW045"
"2023-05-20 00:00",8.422,"Approved","OW045"
"2023-05-20 01:00",8.424,"Approved","OW045"
"2023-05-20 02:00",8.424,"Approved","OW045"
"2023-05-20 03:00",8.425,"Approved","OW045"
"2023-05-20 04:00",8.425,"Approved","OW045"
"2023-05-20 05:00",8.426,"Approved","OW045"
"2023-05-20 06:00",8.428,"Approved","OW045"
"2023-05-20 07:00",8.429,"Approved","OW045"
"2023-05-20 08:00",8.428,"Approved","OW045"
"2023-05-20 09:00",8.427,"Approved","OW045"
"2023-05-20 10:00",8.427,"Approved","OW045"
"2023-05-20 11:00",8.426,"Approved","OW045"
"2023-05-20 12:00",8.425,"Approved","OW045"
"2023-05-20 13:00",8.422,"Approved","OW045"
"2023-05-20 14:00",8.424,"Approved","OW045"
"2023-05-20 15:00",8.432,"Approved","OW045"
"2023-05-20 16:00",8.43,"Approved","OW045"
"2023-05-20 17:00",8.431,"Approved","OW045"
"2023-05-20 18:00",8.433,"Approved","OW045"
"2023-05-20 19:00",8.436,"Approved","OW045"
"2023-05-20 20:00",8.437,"Approved","OW045"
"2023-05-20 21:00",8.439,"Approved","OW045"
"2023-05-20 22:00",8.44,"Approved","OW045"
"2023-05-20 23:00",8.44,"Approved","OW045"
"2023-05-21 00:00",8.442,"Approved","OW045"
"2023-05-21 01:00",8.442,"Approved","OW045"
"2023-05-21 02:00",8.442,"Approved","OW045"
"2023-05-21 03:00",8.443,"Approved","OW045"
"2023-05-21 04:00",8.443,"Approved","OW045"
"2023-05-21 05:00",8.445,"Approved","OW045"
"2023-05-21 06:00",8.445,"Approved","OW045"
"2023-05-21 07:00",8.448,"Approved","OW045"
"2023-05-21 08:00",8.445,"Approved","OW045"
"2023-05-21 09:00",8.447,"Approved","OW045"
"2023-05-21 10:00",8.446,"Approved","OW045"
"2023-05-21 11:00",8.446,"Approved","OW045"
"2023-05-21 12:00",8.441,"Approved","OW045"
"2023-05-21 13:00",8.445,"Approved","OW045"
"2023-05-21 14:00",8.446,"Approved","OW045"
"2023-05-21 15:00",8.443,"Approved","OW045"
"2023-05-21 16:00",8.442,"Approved","OW045"
"2023-05-21 17:00",8.442,"Approved","OW045"
"2023-05-21 18:00",8.444,"Approved","OW045"
"2023-05-21 19:00",8.445,"Approved","OW045"
"2023-05-21 20:00",8.449,"Approved","OW045"
"2023-05-21 21:00",8.451,"Approved","OW045"
"2023-05-21 22:00",8.448,"Approved","OW045"
"2023-05-21 23:00",8.449,"Approved","OW045"
"2023-05-22 00:00",8.449,"Approved","OW045"
"2023-05-22 01:00",8.449,"Approved","OW045"
"2023-05-22 02:00",8.449,"Approved","OW045"
"2023-05-22 03:00",8.451,"Approved","OW045"
"2023-05-22 04:00",8.448,"Approved","OW045"
"2023-05-22 05:00",8.446,"Approved","OW045"
"2023-05-22 06:00",8.45,"Approved","OW045"
"2023-05-22 07:00",8.449,"Approved","OW045"
"2023-05-22 08:00",8.446,"Approved","OW045"
"2023-05-22 09:00",8.446,"Approved","OW045"
"2023-05-22 10:00",8.448,"Approved","OW045"
"2023-05-22 11:00",8.449,"Approved","OW045"
"2023-05-22 12:00",8.446,"Approved","OW045"
"2023-05-22 13:00",8.446,"Approved","OW045"
"2023-05-22 14:00",8.447,"Approved","OW045"
"2023-05-22 15:00",8.447,"Approved","OW045"
"2023-05-22 16:00",8.445,"Approved","OW045"
"2023-05-22 17:00",8.446,"Approved","OW045"
"2023-05-22 18:00",8.448,"Approved","OW045"
"2023-05-22 19:00",8.449,"Approved","OW045"
"2023-05-22 20:00",8.449,"Approved","OW045"
"2023-05-22 21:00",8.452,"Approved","OW045"
"2023-05-22 22:00",8.451,"Approved","OW045"
"2023-05-22 23:00",8.449,"Approved","OW045"
"2023-05-23 00:00",8.45,"Approved","OW045"
"2023-05-23 01:00",8.449,"Approved","OW045"
"2023-05-23 02:00",8.45,"Approved","OW045"
"2023-05-23 03:00",8.45,"Approved","OW045"
"2023-05-23 04:00",8.451,"Approved","OW045"
"2023-05-23 05:00",8.452,"Approved","OW045"
"2023-05-23 06:00",8.455,"Approved","OW045"
"2023-05-23 07:00",8.454,"Approved","OW045"
"2023-05-23 08:00",8.455,"Approved","OW045"
"2023-05-23 09:00",8.458,"Approved","OW045"
"2023-05-23 10:00",8.458,"Approved","OW045"
"2023-05-23 11:00",8.458,"Approved","OW045"
"2023-05-23 12:00",8.456,"Approved","OW045"
"2023-05-23 13:00",8.456,"Approved","OW045"
"2023-05-23 14:00",8.461,"Approved","OW045"
"2023-05-23 15:00",8.459,"Approved","OW045"
"2023-05-23 16:00",8.462,"Approved","OW045"
"2023-05-23 17:00",8.461,"Approved","OW045"
"2023-05-23 18:00",8.464,"Approved","OW045"
"2023-05-23 19:00",8.464,"Approved","OW045"
"2023-05-23 20:00",8.465,"Approved","OW045"
"2023-05-23 21:00",8.466,"Approved","OW045"
"2023-05-23 22:00",8.465,"Approved","OW045"
"2023-05-23 23:00",8.468,"Approved","OW045"
"2023-05-24 00:00",8.468,"Approved","OW045"
"2023-05-24 01:00",8.467,"Approved","OW045"
"2023-05-24 02:00",8.468,"Approved","OW045"
"2023-05-24 03:00",8.469,"Approved","OW045"
"2023-05-24 04:00",8.471,"Approved","OW045"
"2023-05-24 05:00",8.472,"Approved","OW045"
"2023-05-24 06:00",8.471,"Approved","OW045"
"2023-05-24 07:00",8.473,"Approved","OW045"
"2023-05-24 08:00",8.475,"Approved","OW045"
"2023-05-24 09:00",8.475,"Approved","OW045"
"2023-05-24 10:00",8.474,"Approved","OW045"
"2023-05-24 11:00",8.472,"Approved","OW045"
"2023-05-24 12:00",8.472,"Approved","OW045"
"2023-05-24 13:00",8.475,"Approved","OW045"
"2023-05-24 14:00",8.475,"Approved","OW045"
"2023-05-24 15:00",8.474,"Approved","OW045"
"2023-05-24 16:00",8.473,"Approved","OW045"
"2023-05-24 17:00",8.474,"Approved","OW045"
"2023-05-24 18:00",8.475,"Approved","OW045"
"2023-05-24 19:00",8.473,"Approved","OW045"
"2023-05-24 20:00",8.475,"Approved","OW045"
"2023-05-24 21:00",8.475,"Approved","OW045"
"2023-05-24 22:00",8.478,"Approved","OW045"
"2023-05-24 23:00",8.476,"Approved","OW045"
"2023-05-25 00:00",8.477,"Approved","OW045"
"2023-05-25 01:00",8.477,"Approved","OW045"
"2023-05-25 02:00",8.477,"Approved","OW045"
"2023-05-25 03:00",8.478,"Approved","OW045"
"2023-05-25 04:00",8.479,"Approved","OW045"
"2023-05-25 05:00",8.48,"Approved","OW045"
"2023-05-25 06:00",8.477,"Approved","OW045"
"2023-05-25 07:00",8.48,"Approved","OW045"
"2023-05-25 08:00",8.48,"Approved","OW045"
"2023-05-25 09:00",8.477,"Approved","OW045"
"2023-05-25 10:00",8.478,"Approved","OW045"
"2023-05-25 11:00",8.477,"Approved","OW045"
"2023-05-25 12:00",8.478,"Approved","OW045"
"2023-05-25 13:00",8.476,"Approved","OW045"
"2023-05-25 14:00",8.477,"Approved","OW045"
"2023-05-25 15:00",8.473,"Approved","OW045"
"2023-05-25 16:00",8.474,"Approved","OW045"
"2023-05-25 17:00",8.477,"Approved","OW045"
"2023-05-25 18:00",8.476,"Approved","OW045"
"2023-05-25 19:00",8.478,"Approved","OW045"
"2023-05-25 20:00",8.48,"Approved","OW045"
"2023-05-25 21:00",8.482,"Approved","OW045"
"2023-05-25 22:00",8.482,"Approved","OW045"
"2023-05-25 23:00",8.484,"Approved","OW045"
"2023-05-26 00:00",8.479,"Approved","OW045"
"2023-05-26 01:00",8.482,"Approved","OW045"
"2023-05-26 02:00",8.482,"Approved","OW045"
"2023-05-26 03:00",8.482,"Approved","OW045"
"2023-05-26 04:00",8.483,"Approved","OW045"
"2023-05-26 05:00",8.487,"Approved","OW045"
"2023-05-26 06:00",8.488,"Approved","OW045"
"2023-05-26 07:00",8.482,"Approved","OW045"
"2023-05-26 08:00",8.485,"Approved","OW045"
"2023-05-26 09:00",8.482,"Approved","OW045"
"2023-05-26 10:00",8.478,"Approved","OW045"
"2023-05-26 11:00",8.479,"Approved","OW045"
"2023-05-26 12:00",8.479,"Approved","OW045"
"2023-05-26 13:00",8.479,"Approved","OW045"
"2023-05-26 14:00",8.478,"Approved","OW045"
"2023-05-26 15:00",8.477,"Approved","OW045"
"2023-05-26 16:00",8.476,"Approved","OW045"
"2023-05-26 17:00",8.479,"Approved","OW045"
"2023-05-26 18:00",8.48,"Approved","OW045"
"2023-05-26 19:00",8.482,"Approved","OW045"
"2023-05-26 20:00",8.484,"Approved","OW045"
"2023-05-26 21:00",8.486,"Approved","OW045"
"2023-05-26 22:00",8.485,"Approved","OW045"
"2023-05-26 23:00",8.487,"Approved","OW045"
"2023-05-27 00:00",8.489,"Approved","OW045"
"2023-05-27 01:00",8.485,"Approved","OW045"
"2023-05-27 02:00",8.487,"Approved","OW045"
"2023-05-27 03:00",8.49,"Approved","OW045"
"2023-05-27 04:00",8.49,"Approved","OW045"
"2023-05-27 05:00",8.492,"Approved","OW045"
"2023-05-27 06:00",8.495,"Approved","OW045"
"2023-05-27 07:00",8.496,"Approved","OW045"
"2023-05-27 08:00",8.494,"Approved","OW045"
"2023-05-27 09:00",8.493,"Approved","OW045"
"2023-05-27 10:00",8.491,"Approved","OW045"
"2023-05-27 11:00",8.491,"Approved","OW045"
"2023-05-27 12:00",8.491,"Approved","OW045"
"2023-05-27 13:00",8.492,"Approved","OW045"
"2023-05-27 14:00",8.495,"Approved","OW045"
"2023-05-27 15:00",8.495,"Approved","OW045"
"2023-05-27 16:00",8.5,"Approved","OW045"
"2023-05-27 17:00",8.499,"Approved","OW045"
"2023-05-27 18:00",8.499,"Approved","OW045"
"2023-05-27 19:00",8.502,"Approved","OW045"
"2023-05-27 20:00",8.505,"Approved","OW045"
"2023-05-27 21:00",8.504,"Approved","OW045"
"2023-05-27 22:00",8.506,"Approved","OW045"
"2023-05-27 23:00",8.507,"Approved","OW045"
"2023-05-28 00:00",8.512,"Approved","OW045"
"2023-05-28 01:00",8.51,"Approved","OW045"
"2023-05-28 02:00",8.51,"Approved","OW045"
"2023-05-28 03:00",8.511,"Approved","OW045"
"2023-05-28 04:00",8.514,"Approved","OW045"
"2023-05-28 05:00",8.515,"Approved","OW045"
"2023-05-28 06:00",8.516,"Approved","OW045"
"2023-05-28 07:00",8.514,"Approved","OW045"
"2023-05-28 08:00",8.515,"Approved","OW045"
"2023-05-28 09:00",8.515,"Approved","OW045"
"2023-05-28 10:00",8.518,"Approved","OW045"
"2023-05-28 11:00",8.516,"Approved","OW045"
"2023-05-28 12:00",8.516,"Approved","OW045"
"2023-05-28 13:00",8.519,"Approved","OW045"
"2023-05-28 14:00",8.517,"Approved","OW045"
"2023-05-28 15:00",8.516,"Approved","OW045"
"2023-05-28 16:00",8.517,"Approved","OW045"
"2023-05-28 17:00",8.519,"Approved","OW045"
"2023-05-28 18:00",8.518,"Approved","OW045"
"2023-05-28 19:00",8.521,"Approved","OW045"
"2023-05-28 20:00",8.519,"Approved","OW045"
"2023-05-28 21:00",8.521,"Approved","OW045"
"2023-05-28 22:00",8.522,"Approved","OW045"
"2023-05-28 23:00",8.522,"Approved","OW045"
"2023-05-29 00:00",8.525,"Approved","OW045"
"2023-05-29 01:00",8.523,"Approved","OW045"
"2023-05-29 02:00",8.526,"Approved","OW045"
"2023-05-29 03:00",8.528,"Approved","OW045"
"2023-05-29 04:00",8.531,"Approved","OW045"